Lake Hartwell Weather Center

Moon Phase Calendar



Lake Hartwell Water Level
Online Cameras

 


      

Current Conditions in Centerville
1/27/2022 4:33:59 PM

47°F
Feels Like 47
Clear
Humidity
41%
Pressure
30.24"
Wind
0
Dew Point
26°F
UV Index
0/10 (Low)
Visibility
6 mi

Hourly Forecast

Date & Time Thu, Jan 27
4:00 PM
Thu, Jan 27
5:00 PM
Thu, Jan 27
6:00 PM
Thu, Jan 27
7:00 PM
Thu, Jan 27
8:00 PM
Thu, Jan 27
9:00 PM
Thu, Jan 27
10:00 PM
Thu, Jan 27
11:00 PM
Fri, Jan 28
12:00 AM
Fri, Jan 28
1:00 AM
Fri, Jan 28
2:00 AM
Fri, Jan 28
3:00 AM
Fri, Jan 28
4:00 AM
Fri, Jan 28
5:00 AM
Fri, Jan 28
6:00 AM
Fri, Jan 28
7:00 AM
Fri, Jan 28
8:00 AM
Fri, Jan 28
9:00 AM
Fri, Jan 28
10:00 AM
Fri, Jan 28
11:00 AM
Fri, Jan 28
12:00 PM
Fri, Jan 28
1:00 PM
Fri, Jan 28
2:00 PM
Fri, Jan 28
3:00 PM
Fri, Jan 28
4:00 PM
Fri, Jan 28
5:00 PM
Fri, Jan 28
6:00 PM
Fri, Jan 28
7:00 PM
Fri, Jan 28
8:00 PM
Fri, Jan 28
9:00 PM
Fri, Jan 28
10:00 PM
Fri, Jan 28
11:00 PM
Sat, Jan 29
12:00 AM
Sat, Jan 29
1:00 AM
Sat, Jan 29
2:00 AM
Sat, Jan 29
3:00 AM
Sat, Jan 29
4:00 AM
Sat, Jan 29
5:00 AM
Sat, Jan 29
6:00 AM
Sat, Jan 29
7:00 AM
Sat, Jan 29
8:00 AM
Sat, Jan 29
9:00 AM
Sat, Jan 29
10:00 AM
Sat, Jan 29
11:00 AM
Sat, Jan 29
12:00 PM
Sat, Jan 29
1:00 PM
Sat, Jan 29
2:00 PM
Sat, Jan 29
3:00 PM
Condition
Clear

Clear

Clear

Clear

Clear

Clouds

Clouds

Clouds

Clouds

Clouds

Clouds

Clouds

Clouds

Clouds

Clouds

Clouds

Clouds

Clouds

Clouds

Clouds

Clouds

Clouds

Clouds

Clouds

Clouds

Clouds

Clouds

Clouds

Clouds

Clouds

Clouds

Clouds

Clouds

Clouds

Clear

Clear

Clouds

Clouds

Clouds

Clouds

Clear

Clear

Clear

Clear

Clear

Clear

Clear

Clear
Temperature 47°F47°F46°F44°F42°F40°F38°F38°F36°F35°F35°F35°F34°F34°F33°F32°F33°F38°F43°F47°F49°F51°F53°F52°F49°F48°F42°F40°F40°F38°F35°F33°F31°F30°F29°F28°F28°F27°F25°F25°F25°F27°F31°F34°F37°F39°F40°F41°F
Feels Like 47°F47°F45°F43°F42°F40°F38°F38°F36°F35°F35°F35°F34°F31°F29°F28°F29°F34°F39°F43°F46°F49°F50°F49°F45°F43°F35°F34°F35°F31°F26°F23°F22°F21°F20°F18°F17°F17°F16°F16°F16°F19°F22°F26°F29°F32°F33°F34°F
Cloudiness 0%0%1%2%10%46%71%79%83%86%100%99%99%99%96%87%98%99%99%100%100%100%100%100%100%100%100%100%100%93%63%48%38%32%1%3%22%18%14%12%0%0%0%0%0%0%0%0%
Visibility 6 mi6 mi6 mi6 mi6 mi6 mi6 mi6 mi6 mi6 mi6 mi6 mi6 mi6 mi6 mi6 mi6 mi6 mi6 mi6 mi6 mi6 mi6 mi6 mi6 mi6 mi6 mi6 mi6 mi6 mi6 mi6 mi6 mi6 mi6 mi6 mi6 mi6 mi6 mi6 mi6 mi6 mi6 mi6 mi6 mi6 mi6 mi6 mi
Precipitation 0%0%0%0%0%0%0%0%0%0%0%0%0%0%0%0%0%0%0%0%0%0%0%1%1%8%8%5%0%0%0%0%0%0%0%0%0%0%0%0%0%0%0%0%0%0%0%0%
Humidity 41%41%44%48%53%57%61%62%65%67%68%69%71%72%74%76%74%65%56%51%49%49%48%51%57%52%55%63%61%61%58%55%56%57%56%52%52%51%48%45%41%30%23%18%15%14%14%15%
Dew Point 26°F26°F26°F26°F27°F26°F25°F26°F25°F26°F25°F26°F26°F26°F25°F25°F26°F27°F28°F30°F31°F33°F34°F34°F35°F31°F27°F29°F28°F25°F21°F18°F17°F16°F15°F13°F12°F11°F8°F6°F4°F0°F-3°F-5°F-6°F-6°F-5°F-4°F
Pressure 30.24"30.24"30.24"30.24"30.27"30.27"30.27"30.27"30.24"30.24"30.24"30.21"30.18"30.18"30.15"30.15"30.15"30.12"30.12"30.09"30.03"30"29.94"29.91"29.91"29.91"29.94"29.94"29.97"29.97"30"30"30"30"30.03"30.03"30.03"30.03"30.06"30.09"30.12"30.15"30.15"30.15"30.15"30.09"30.09"30.09"
Wind Speed 2.9 mph2.7 mph3.2 mph3.2 mph2.3 mph1.4 mph1.8 mph1.7 mph1.2 mph1.2 mph1.9 mph2.5 mph2.9 mph3.4 mph3.7 mph4 mph4.2 mph4.4 mph5.8 mph7.1 mph7.9 mph8.6 mph9.7 mph12.1 mph9.8 mph11.3 mph13.8 mph10.8 mph8.1 mph9.8 mph12.7 mph13 mph11.6 mph10.5 mph9.9 mph11.5 mph11.8 mph9.6 mph9.2 mph9 mph7.3 mph9 mph9.1 mph9.7 mph9.9 mph10.7 mph12.5 mph11.8 mph
Wind
Direction
144°
SE
151°
SSE
145°
SE
139°
SE
123°
ESE
131°
SE
141°
SE
163°
SSE
173°
S
206°
SSW
230°
SW
241°
WSW
268°
W
248°
WSW
234°
SW
243°
WSW
243°
WSW
242°
WSW
232°
SW
232°
SW
235°
SW
241°
WSW
244°
WSW
263°
W
273°
W
285°
WNW
281°
W
293°
WNW
325°
NW
308°
NW
305°
NW
305°
NW
304°
NW
310°
NW
314°
NW
313°
NW
319°
NW
313°
NW
313°
NW
309°
NW
303°
WNW
310°
NW
319°
NW
318°
NW
324°
NW
322°
NW
320°
NW
317°
NW

Daily Forecast

Date High Low Precip. Humidity
Today
Jan 27

Clouds
48 °F
29 °F
0%
40%
Friday
Jan 28

Clouds
53 °F
32 °F
8%
49%
Saturday
Jan 29

Clear
40 °F
25 °F
0%
14%
Sunday
Jan 30

Clear
51 °F
25 °F
0%
37%
Monday
Jan 31

Clouds
55 °F
30 °F
0%
43%
Tuesday
Feb 1

Clouds
53 °F
34 °F
0%
55%
Wednesday
Feb 2

Rain
57 °F
41 °F
100%
83%
Thursday
Feb 3

Rain
61 °F
49 °F
100%
90%
Friday
Feb 4

Clouds
47 °F
36 °F
0%
52%
Saturday
Feb 5

Snow
36 °F
14 °F
100%
96%
Sunday
Feb 6

Clouds
32 °F
15 °F
0%
88%
Monday
Feb 7

Clouds
31 °F
12 °F
0%
88%
Tuesday
Feb 8

Snow
34 °F
29 °F
100%
100%
Wednesday
Feb 9

Rain
37 °F
33 °F
74%
100%
Thursday
Feb 10

Rain
34 °F
33 °F
100%
100%
Friday
Feb 11

Snow
36 °F
29 °F
100%
98%

Temperature 8-14 Day Outlook



Precipitation 8-14 Day Outlook




Quick Links
Lake Hartwell News
Lake Hartwell Photos
Lake Hartwell Videos




About Us
Contact Us
Site Map
Search Site
Advertise With Us
   
www.MyLakeHartwell.com
THE LAKE HARTWELL WEBSITE

Copyright 2022, Lakes Online
Privacy    |    Legal